FW3849 Weather Reports


time (UTC)temp
C
wind
direction
speed
KPH
gust
KPH
rain 1hr
cm
rain 24hr
cm
rain mn
cm
humidity
%
barometer
mb
20260509012010 25 201 6.4 11.3 0.00 0.00 0.00 45 1009.4
20260509011511 25 207 4.8 14.5 0.00 0.00 0.00 45 1009.3
20260509011112 25 193 8.0 14.5 0.00 0.00 0.00 44 1009.3
20260509010509 25 208 8.0 14.5 0.00 0.00 0.00 44 1009.2
20260509010010 25 195 6.4 14.5 0.00 0.00 0.00 44 1009.0
20260509005509 26 195 4.8 14.5 0.00 0.00 0.00 43 1008.9
20260509005010 26 191 6.4 12.9 0.00 0.00 0.00 42 1008.8
20260509004509 26 202 4.8 9.7 0.00 0.00 0.00 42 1008.7
20260509004009 26 192 3.2 8.0 0.00 0.00 0.00 42 1008.7
20260509003509 26 175 3.2 8.0 0.00 0.00 0.00 41 1008.7
20260509003010 26 234 1.6 4.8 0.00 0.00 0.00 41 1008.8
20260509002511 26 234 1.6 4.8 0.00 0.00 0.00 41 1008.8
20260509002008 26 234 1.6 3.2 0.00 0.00 0.00 41 1008.8
20260509001508 26 235 1.6 3.2 0.00 0.00 0.00 41 1009.1
20260509000511 26 234 1.6 9.7 0.00 0.00 0.00 41 1009.1
20260509000011 26 234 3.2 9.7 0.00 0.00 0.00 41 1009.1
20260508235511 26 210 4.8 9.7 0.00 0.00 0.00 40 1008.9
20260508235011 26 220 3.2 6.4 0.00 0.00 0.00 40 1008.8
20260508234511 26 208 3.2 6.4 0.00 0.00 0.00 40 1008.6
20260508234011 26 207 3.2 6.4 0.00 0.00 0.00 40 1008.5
20260508233510 26 195 3.2 6.4 0.00 0.00 0.00 39 1008.4
20260508233010 26 166 1.6 6.4 0.00 0.00 0.00 40 1008.4
20260508232510 26 160 1.6 6.4 0.00 0.00 0.00 39 1008.4
20260508232012 26 164 3.2 6.4 0.00 0.00 0.00 39 1008.4
20260508231510 26 187 1.6 6.4 0.00 0.00 0.00 39 1008.4
20260508230510 26 193 3.2 8.0 0.00 0.00 0.00 39 1008.1
20260508230006 26 189 3.2 8.0 0.00 0.00 0.00 39 1008.2
20260508225509 26 177 3.2 6.4 0.00 0.00 0.00 39 1008.1
20260508225006 26 211 0.0 3.2 0.00 0.00 0.00 39 1008.1
20260508224510 26 176 0.0 4.8 0.00 0.00 0.00 39 1008.1
20260508224009 26 177 3.2 6.4 0.00 0.00 0.00 38 1007.9
20260508223504 26 181 3.2 6.4 0.00 0.00 0.00 39 1008.0
20260508223004 26 152 3.2 6.4 0.00 0.00 0.00 39 1008.0
20260508222503 26 144 3.2 6.4 0.00 0.00 0.00 39 1008.0
20260508222002 27 142 3.2 8.0 0.00 0.00 0.00 39 1008.2
20260508221505 26 203 1.6 6.4 0.00 0.00 0.00 39 1008.3
20260508220600 26 273 1.6 8.0 0.00 0.00 0.00 39 1008.5
20260508220501 26 273 0.0 8.0 0.00 0.00 0.00 39 1008.5
20260508215600 26 203 4.8 12.9 0.00 0.00 0.00 39 1008.6
20260508215059 26 39 1.6 9.7 0.00 0.00 0.00 40 1008.6
20260508214608 26 48 3.2 9.7 0.00 0.00 0.00 41 1008.6
20260508214057 26 189 3.2 9.7 0.00 0.00 0.00 41 1008.8
20260508213556 26 49 6.4 9.7 0.00 0.00 0.00 41 1008.8
20260508213055 26 150 1.6 8.0 0.00 0.00 0.00 43 1008.8
20260508212555 25 285 3.2 9.7 0.00 0.00 0.00 44 1008.7
20260508212055 25 218 4.8 9.7 0.00 0.00 0.00 44 1008.9
20260508211555 25 256 4.8 11.3 0.00 0.00 0.00 44 1009.0
20260508211153 25 251 4.8 12.9 0.00 0.00 0.00 44 1009.1
20260508210557 25 251 4.8 12.9 0.00 0.00 0.00 44 1009.1
20260508210055 26 224 8.0 12.9 0.00 0.00 0.00 43 1009.3
20260508205552 25 153 1.6 9.7 0.00 0.00 0.00 46 1009.3
20260508205050 25 238 3.2 9.7 0.00 0.00 0.00 47 1009.4
20260508204551 25 185 4.8 12.9 0.00 0.00 0.00 47 1009.4
20260508204048 25 99 3.2 11.3 0.00 0.00 0.00 48 1009.4
20260508203554 24 143 0.0 16.1 0.00 0.00 0.00 48 1009.6
20260508203047 24 139 6.4 16.1 0.00 0.00 0.00 48 1009.8
20260508202546 24 156 4.8 9.7 0.00 0.00 0.00 48 1009.8
20260508202044 23 35 3.2 8.0 0.00 0.00 0.00 49 1010.1
20260508201544 23 258 4.8 9.7 0.00 0.00 0.00 51 1010.1
20260508201144 23 127 4.8 11.3 0.00 0.00 0.00 51 1010.2
20260508200542 23 202 3.2 11.3 0.00 0.00 0.00 51 1010.3
20260508200044 23 195 4.8 14.5 0.00 0.00 0.00 51 1010.4
20260508195541 23 39 6.4 14.5 0.00 0.00 0.00 51 1010.5
20260508195039 23 60 8.0 12.9 0.00 0.00 0.00 52 1010.6
20260508194539 22 117 4.8 9.7 0.00 0.00 0.00 52 1010.6
20260508194038 22 193 3.2 9.7 0.00 0.00 0.00 53 1010.8
20260508193537 22 204 4.8 9.7 0.00 0.00 0.00 52 1010.8
20260508193045 22 158 6.4 9.7 0.00 0.00 0.00 53 1010.9
20260508192535 22 144 1.6 8.0 0.00 0.00 0.00 54 1010.9
20260508192038 22 90 1.6 9.7 0.00 0.00 0.00 54 1011.0
20260508191545 21 85 3.2 8.0 0.00 0.00 0.00 56 1011.1
20260508191132 21 85 3.2 8.0 0.00 0.00 0.00 56 1011.3
20260508190535 21 101 4.8 9.7 0.00 0.00 0.00 56 1011.3
20260508190049 21 234 1.6 12.9 0.00 0.00 0.00 56 1011.4
20260508185536 21 127 3.2 9.7 0.00 0.00 0.00 56 1011.4
20260508185031 21 208 3.2 9.7 0.00 0.00 0.00 57 1011.5
20260508184534 20 192 4.8 11.3 0.00 0.00 0.00 57 1011.6
20260508184031 20 159 3.2 8.0 0.00 0.00 0.00 57 1011.8
20260508183527 20 154 1.6 8.0 0.00 0.00 0.00 58 1011.9
20260508183035 20 178 4.8 14.5 0.00 0.00 0.00 59 1012.1
20260508182524 19 162 6.4 14.5 0.00 0.00 0.00 59 1012.1
20260508182024 19 199 4.8 9.7 0.00 0.00 0.00 59 1012.1
20260508181524 19 191 4.8 9.7 0.00 0.00 0.00 59 1012.2
20260508181124 18 160 4.8 16.1 0.00 0.00 0.00 60 1012.2
20260508180521 18 175 4.8 16.1 0.00 0.00 0.00 60 1012.4
20260508180020 18 159 6.4 16.1 0.00 0.00 0.00 60 1012.6
20260508175518 18 213 4.8 14.5 0.00 0.00 0.00 60 1012.7
20260508175018 18 237 3.2 8.0 0.00 0.00 0.00 60 1012.7
20260508174518 18 212 4.8 12.9 0.00 0.00 0.00 60 1012.7
20260508174017 18 243 6.4 16.1 0.00 0.00 0.00 60 1012.9
20260508173517 18 227 9.7 16.1 0.00 0.00 0.00 60 1013.0
20260508173016 18 209 6.4 14.5 0.00 0.00 0.00 60 1012.9
20260508172517 18 254 6.4 12.9 0.00 0.00 0.00 60 1013.0
20260508172014 18 198 4.8 11.3 0.00 0.00 0.00 61 1013.1
20260508171517 18 275 6.4 11.3 0.00 0.00 0.00 62 1013.1
20260508171114 17 231 3.2 8.0 0.00 0.00 0.00 62 1013.2
20260508170513 17 232 3.2 8.0 0.00 0.00 0.00 62 1013.1
20260508170013 17 199 4.8 11.3 0.00 0.00 0.00 62 1013.1
20260508165512 17 215 4.8 11.3 0.00 0.00 0.00 62 1013.1
20260508165015 17 185 4.8 9.7 0.00 0.00 0.00 62 1013.1
20260508164521 17 154 4.8 12.9 0.00 0.00 0.00 62 1013.1
20260508164011 17 179 4.8 12.9 0.00 0.00 0.00 63 1013.2
20260508163509 17 197 4.8 12.9 0.00 0.00 0.00 63 1013.2
20260508163014 17 195 4.8 9.7 0.00 0.00 0.00 63 1013.3
20260508162509 17 218 3.2 14.5 0.00 0.00 0.00 63 1013.3
20260508162008 17 196 8.0 14.5 0.00 0.00 0.00 63 1013.3
20260508161510 17 187 6.4 14.5 0.00 0.00 0.00 63 1013.4
20260508161108 17 208 8.0 14.5 0.00 0.00 0.00 63 1013.5
20260508160511 17 203 6.4 14.5 0.00 0.00 0.00 63 1013.3
20260508160011 17 206 8.0 17.7 0.00 0.00 0.00 63 1013.5
20260508155512 17 176 11.3 17.7 0.00 0.00 0.00 63 1013.3
20260508155010 17 192 9.7 17.7 0.00 0.00 0.00 63 1013.4
20260508154510 17 204 12.9 17.7 0.00 0.00 0.00 63 1013.3
20260508154010 17 196 8.0 20.9 0.00 0.00 0.00 63 1013.4
20260508153509 17 202 12.9 20.9 0.00 0.00 0.00 63 1013.5
20260508153019 17 185 8.0 17.7 0.00 0.00 0.00 63 1013.4
20260508152514 17 202 9.7 17.7 0.00 0.00 0.00 63 1013.4
20260508152013 17 201 8.0 16.1 0.00 0.00 0.00 64 1013.4
20260508151508 17 187 6.4 16.1 0.00 0.00 0.00 64 1013.5
20260508151109 16 160 9.7 20.9 0.00 0.00 0.00 67 1013.5
20260508150502 16 188 11.3 20.9 0.00 0.00 0.00 67 1013.5
20260508150004 16 188 8.0 17.7 0.00 0.00 0.00 70 1013.4
20260508145601 16 139 9.7 17.7 0.00 0.00 0.00 72 1013.4
20260508145059 16 208 6.4 17.7 0.00 0.00 0.00 75 1013.7
20260508144609 16 186 11.3 17.7 0.00 0.00 0.00 75 1013.5
20260508144101 16 189 8.0 14.5 0.00 0.00 0.00 75 1013.6
20260508143557 16 203 8.0 16.1 0.00 0.00 0.00 75 1013.6
20260508143059 15 149 6.4 16.1 0.00 0.00 0.00 75 1013.6
20260508142555 15 205 6.4 14.5 0.00 0.00 0.00 75 1013.7
20260508142055 15 181 6.4 16.1 0.00 0.00 0.00 75 1013.7
20260508141604 15 148 6.4 16.1 0.00 0.00 0.00 75 1013.8
20260508141053 15 166 6.4 16.1 0.00 0.00 0.00 75 1013.8
20260508140056 15 127 6.4 16.1 0.00 0.00 0.00 75 1013.9
20260508135556 15 156 4.8 14.5 0.00 0.00 0.00 75 1013.9
20260508135053 15 202 6.4 14.5 0.00 0.00 0.00 75 1013.9
20260508134553 15 184 6.4 14.5 0.00 0.00 0.00 75 1013.9
20260508134051 15 198 4.8 12.9 0.00 0.00 0.00 75 1014.0
20260508133551 15 182 6.4 12.9 0.00 0.00 0.00 75 1013.9
20260508133052 15 202 6.4 12.9 0.00 0.00 0.00 75 1013.7
20260508132550 15 198 4.8 12.9 0.00 0.00 0.00 75 1013.9
20260508132050 15 179 6.4 12.9 0.00 0.00 0.00 75 1013.9
20260508131603 15 175 4.8 16.1 0.00 0.00 0.00 75 1013.9
20260508131049 15 202 6.4 16.1 0.00 0.00 0.00 75 1013.9
20260508130048 15 191 4.8 8.0 0.00 0.00 0.00 74 1013.8
20260508125550 15 177 3.2 8.0 0.00 0.00 0.00 74 1013.9
20260508125047 15 185 3.2 8.0 0.00 0.00 0.00 74 1013.8
20260508124548 15 182 4.8 8.0 0.00 0.00 0.00 73 1013.7
20260508124047 15 206 3.2 8.0 0.00 0.00 0.00 73 1013.8
20260508123547 15 202 3.2 8.0 0.00 0.00 0.00 73 1013.7
20260508123105 15 170 1.6 8.0 0.00 0.00 0.00 73 1013.7
20260508122549 15 163 1.6 8.0 0.00 0.00 0.00 73 1013.7
20260508122047 15 191 3.2 8.0 0.00 0.00 0.00 72 1013.7
20260508121545 15 154 3.2 6.4 0.00 0.00 0.00 72 1013.7
20260508121044 15 140 1.6 6.4 0.00 0.00 0.00 71 1013.8
20260508120059 15 144 1.6 4.8 0.00 0.00 0.00 71 1013.8
20260508115544 15 157 1.6 4.8 0.00 0.00 0.00 71 1013.9
20260508115042 15 166 1.6 6.4 0.00 0.00 0.00 71 1013.9
20260508114554 15 163 3.2 6.4 0.00 0.00 0.00 70 1013.7
20260508114043 15 143 1.6 4.8 0.00 0.00 0.00 70 1013.9
20260508113543 15 160 1.6 4.8 0.00 0.00 0.00 70 1014.1
20260508113043 15 144 3.2 6.4 0.00 0.00 0.00 69 1014.1
20260508112541 15 117 1.6 6.4 0.00 0.00 0.00 69 1013.9
20260508112041 15 190 1.6 4.8 0.00 0.00 0.00 69 1014.0
20260508111545 15 190 1.6 6.4 0.00 0.00 0.00 68 1014.1
20260508111040 15 191 1.6 6.4 0.00 0.00 0.00 68 1014.1
20260508110040 15 175 3.2 11.3 0.00 0.00 0.00 67 1013.9
20260508105539 15 187 4.8 12.9 0.00 0.00 0.00 67 1014.0
20260508105039 15 204 6.4 12.9 0.00 0.00 0.00 67 1014.0
20260508104542 15 191 4.8 16.1 0.00 0.00 0.00 66 1014.0
20260508104037 15 220 4.8 16.1 0.00 0.00 0.00 66 1013.9
20260508103537 15 193 6.4 14.5 0.00 0.00 0.00 65 1013.8
20260508103051 15 211 8.0 14.5 0.00 0.00 0.00 65 1013.8
20260508102534 15 185 8.0 14.5 0.00 0.00 0.00 65 1013.9
20260508102033 15 195 6.4 12.9 0.00 0.00 0.00 65 1013.8
20260508101533 15 189 6.4 12.9 0.00 0.00 0.00 65 1013.8
20260508101034 15 177 4.8 12.9 0.00 0.00 0.00 65 1013.6
20260508100033 15 194 4.8 12.9 0.00 0.00 0.00 65 1013.7
20260508095533 15 206 6.4 9.7 0.00 0.00 0.00 65 1013.6
20260508095033 15 204 4.8 9.7 0.00 0.00 0.00 65 1013.7
20260508094531 15 175 4.8 8.0 0.00 0.00 0.00 65 1013.7
20260508094032 15 193 3.2 6.4 0.00 0.00 0.00 65 1013.7
20260508093531 15 192 4.8 14.5 0.00 0.00 0.00 65 1013.7
20260508093038 15 196 6.4 14.5 0.00 0.00 0.00 65 1013.7
20260508092531 15 183 4.8 12.9 0.00 0.00 0.00 65 1013.8
20260508092030 15 208 6.4 12.9 0.00 0.00 0.00 65 1013.9
20260508091533 15 187 4.8 9.7 0.00 0.00 0.00 65 1014.0
20260508091028 15 196 4.8 8.0 0.00 0.00 0.00 66 1014.0
20260508090029 15 183 4.8 8.0 0.00 0.00 0.00 66 1014.0
20260508085531 14 183 4.8 9.7 0.00 0.00 0.00 66 1014.1
20260508085027 14 185 4.8 9.7 0.00 0.00 0.00 66 1014.1
20260508084528 14 191 4.8 8.0 0.00 0.00 0.00 66 1014.1
20260508084028 14 195 4.8 8.0 0.00 0.00 0.00 66 1014.2
20260508083527 14 195 3.2 9.7 0.00 0.00 0.00 66 1014.1
20260508083029 14 182 4.8 9.7 0.00 0.00 0.00 66 1014.1
20260508082526 14 173 4.8 11.3 0.00 0.00 0.00 66 1014.2
20260508082026 14 185 4.8 9.7 0.00 0.00 0.00 66 1014.2
20260508081526 14 208 6.4 9.7 0.00 0.00 0.00 66 1014.3
20260508081026 14 181 4.8 8.0 0.00 0.00 0.00 66 1014.3
20260508080029 14 183 3.2 8.0 0.00 0.00 0.00 66 1014.3
20260508075529 14 149 3.2 8.0 0.00 0.00 0.00 66 1014.4
20260508075031 14 164 3.2 9.7 0.00 0.00 0.00 66 1014.5
20260508074528 14 190 4.8 9.7 0.00 0.00 0.00 66 1014.5
20260508074026 14 183 4.8 12.9 0.00 0.00 0.00 66 1014.7
20260508073528 14 196 6.4 12.9 0.00 0.00 0.00 65 1014.7
20260508073032 14 185 4.8 9.7 0.00 0.00 0.00 65 1014.6
20260508072529 14 198 4.8 8.0 0.00 0.00 0.00 65 1014.8
20260508072026 14 198 4.8 8.0 0.00 0.00 0.00 65 1014.9
20260508071526 14 192 4.8 8.0 0.00 0.00 0.00 65 1015.0
20260508071025 14 179 4.8 9.7 0.00 0.00 0.00 65 1015.0
20260508070023 14 166 4.8 9.7 0.00 0.00 0.00 65 1015.1
20260508065521 14 165 3.2 8.0 0.00 0.00 0.00 65 1015.0
20260508065026 14 175 3.2 8.0 0.00 0.00 0.00 65 1015.0
20260508064526 14 179 3.2 6.4 0.00 0.00 0.00 65 1015.1
20260508064022 14 187 3.2 6.4 0.00 0.00 0.00 65 1015.2
20260508063521 14 163 3.2 6.4 0.00 0.00 0.00 65 1015.3
20260508063020 14 138 1.6 6.4 0.00 0.00 0.00 65 1015.2
20260508062523 14 117 3.2 6.4 0.00 0.00 0.00 65 1015.3
20260508062020 14 102 0.0 4.8 0.00 0.00 0.00 65 1015.3
20260508061520 14 102 3.2 4.8 0.00 0.00 0.00 65 1015.4
20260508061019 14 73 1.6 4.8 0.00 0.00 0.00 65 1015.2
20260508060020 14 70 1.6 4.8 0.00 0.00 0.00 65 1015.4
20260508055521 15 62 3.2 6.4 0.00 0.00 0.00 65 1015.4
20260508055019 15 60 1.6 6.4 0.00 0.00 0.00 65 1015.4
20260508054520 15 73 1.6 6.4 0.00 0.00 0.00 65 1015.4
20260508054019 15 75 1.6 4.8 0.00 0.00 0.00 65 1015.5
20260508053519 15 73 1.6 4.8 0.00 0.00 0.00 65 1015.6
20260508053019 15 160 1.6 4.8 0.00 0.00 0.00 65 1015.8
20260508052521 15 168 1.6 4.8 0.00 0.00 0.00 65 1015.8
20260508052019 15 171 0.0 6.4 0.00 0.00 0.00 65 1015.7
20260508051519 15 173 3.2 6.4 0.00 0.00 0.00 65 1015.7
20260508051018 15 168 4.8 8.0 0.00 0.00 0.00 64 1015.7
20260508050027 15 193 3.2 6.4 0.00 0.00 0.00 64 1015.5
20260508045518 15 195 1.6 8.0 0.00 0.00 0.00 63 1015.4
20260508045018 15 193 3.2 8.0 0.00 0.00 0.00 63 1015.6
20260508044518 15 185 4.8 8.0 0.00 0.00 0.00 63 1015.7
20260508044018 15 169 4.8 8.0 0.00 0.00 0.00 63 1015.6
20260508043517 15 143 3.2 8.0 0.00 0.00 0.00 62 1015.5
20260508043017 15 187 3.2 8.0 0.00 0.00 0.00 62 1015.5
20260508042518 15 122 3.2 9.7 0.00 0.00 0.00 62 1015.5
20260508042022 15 194 4.8 9.7 0.00 0.00 0.00 62 1015.4
20260508041517 15 173 4.8 11.3 0.00 0.00 0.00 63 1015.5
20260508041017 15 155 4.8 11.3 0.00 0.00 0.00 63 1015.4
20260508040019 15 167 4.8 11.3 0.00 0.00 0.00 63 1015.3
20260508035517 15 168 4.8 11.3 0.00 0.00 0.00 64 1015.3
20260508035017 15 164 4.8 9.7 0.00 0.00 0.00 64 1015.3
20260508034519 15 187 6.4 11.3 0.00 0.00 0.00 64 1015.2
20260508034017 15 166 4.8 12.9 0.00 0.00 0.00 64 1015.3
20260508033516 15 198 4.8 12.9 0.00 0.00 0.00 64 1015.4
20260508033016 15 99 4.8 9.7 0.00 0.00 0.00 63 1015.3
20260508032516 15 163 6.4 9.7 0.00 0.00 0.00 63 1015.3
20260508032016 15 146 4.8 9.7 0.00 0.00 0.00 63 1015.3
20260508031516 15 117 4.8 9.7 0.00 0.00 0.00 63 1015.3
20260508031015 15 165 4.8 9.7 0.00 0.00 0.00 62 1015.3
20260508030015 15 168 3.2 8.0 0.00 0.00 0.00 62 1015.3
20260508025514 15 181 3.2 6.4 0.00 0.00 0.00 62 1015.4
20260508025014 15 145 3.2 6.4 0.00 0.00 0.00 62 1015.4
20260508024515 15 146 3.2 9.7 0.00 0.00 0.00 62 1015.3
20260508024014 15 144 3.2 9.7 0.00 0.00 0.00 62 1015.3
20260508023514 15 156 4.8 12.9 0.00 0.00 0.00 62 1015.2
20260508023114 15 171 4.8 12.9 0.00 0.00 0.00 62 1015.2
20260508022513 15 178 3.2 9.7 0.00 0.00 0.00 62 1015.3
20260508022015 15 194 4.8 12.9 0.00 0.00 0.00 62 1015.2
20260508021514 15 195 4.8 12.9 0.00 0.00 0.00 62 1015.3
20260508021016 15 173 4.8 9.7 0.00 0.00 0.00 62 1015.3
20260508020022 15 162 6.4 9.7 0.00 0.00 0.00 62 1015.1
20260508015515 15 168 3.2 9.7 0.00 0.00 0.00 62 1015.1
20260508015015 15 108 4.8 12.9 0.00 0.00 0.00 62 1015.1
20260508014515 15 177 6.4 16.1 0.00 0.00 0.00 62 1015.1
20260508014017 15 179 8.0 16.1 0.00 0.00 0.00 61 1014.9
20260508013514 15 179 4.8 14.5 0.00 0.00 0.00 61 1015.0
20260508013014 15 171 4.8 14.5 0.00 0.00 0.00 61 1015.1
20260508012517 15 133 6.4 14.5 0.00 0.00 0.00 61 1015.2